User: anonymous   Login
Location: Toronto
(43.6672°N, 79.4170°W)
Time: 03:40:48
(UTC-04:00)
Language:

ISS - Orbit

View from above orbital plane
View from above orbital plane
View from above satellite
View from above satellite

Ground track
Ground track

The orbit data is extracted from the following two-line orbital elements,

1 25544U 98067A   14299.20792975  .00019150  00000-0  33218-3 0  3031
2 25544 051.6452 170.1156 0002589 308.7353 147.2694 15.50884508911658
Epoch (UTC): 26 October 2014 04:59:25
Eccentricity: 0.0002589
inclination: 51.6452°
perigee height: 412 km
apogee height: 416 km
right ascension of ascending node: 170.1156°
argument of perigee: 308.7353°
revolutions per day: 15.50884508
mean anomaly at epoch: 147.2694°
orbit number at epoch: 91165

The dashed part of the orbit path shows where the satellite is in the earth's shadow,  

DLR